Time,TemperatureF,DewpointF,PressureIn,WindDirection,WindDirectionDegrees,WindSpeedMPH,WindSpeedGustMPH,Humidity,HourlyPrecipIn,Conditions,Clouds,dailyrainin,SoftwareType,DateUTC
2013-01-21 00:04:00,33.0,31.0,30.06,North,0,0.0,0.0,92,0.00,,,0.01,,2013-01-21 05:04:00,
2013-01-21 00:13:00,33.0,31.0,30.06,North,0,0.0,0.0,92,0.00,,,0.01,,2013-01-21 05:13:00,
2013-01-21 00:22:00,32.0,30.0,30.06,North,0,0.0,0.0,93,0.00,,,0.01,,2013-01-21 05:22:00,
2013-01-21 00:34:00,32.0,30.0,30.06,North,0,0.0,0.0,93,0.00,,,0.01,,2013-01-21 05:34:00,
2013-01-21 00:43:00,32.0,30.0,30.06,North,0,0.0,0.0,93,0.00,,,0.01,,2013-01-21 05:43:00,
2013-01-21 00:53:00,32.0,30.0,30.06,North,0,0.0,0.0,94,0.00,,,0.01,,2013-01-21 05:53:00,
2013-01-21 01:03:00,32.0,30.0,30.06,North,0,0.0,0.0,94,0.00,,,0.01,,2013-01-21 06:03:00,
2013-01-21 01:13:00,32.0,30.0,30.06,North,0,0.0,0.0,94,0.00,,,0.01,,2013-01-21 06:13:00,
2013-01-21 01:23:00,31.0,29.0,30.05,North,0,0.0,0.0,94,0.00,,,0.01,,2013-01-21 06:23:00,
2013-01-21 01:33:00,31.0,29.0,30.05,North,0,0.0,0.0,94,0.00,,,0.01,,2013-01-21 06:33:00,
2013-01-21 01:43:00,31.0,29.0,30.05,North,0,0.0,0.0,94,0.00,,,0.01,,2013-01-21 06:43:00,
2013-01-21 01:53:00,31.0,29.0,30.05,North,0,0.0,0.0,94,0.00,,,0.01,,2013-01-21 06:53:00,
2013-01-21 02:03:00,30.0,29.0,30.05,North,0,0.0,0.0,95,0.00,,,0.01,,2013-01-21 07:03:00,
2013-01-21 02:13:00,30.0,29.0,30.05,North,0,0.0,0.0,95,0.00,,,0.01,,2013-01-21 07:13:00,
2013-01-21 02:23:00,30.0,29.0,30.05,North,0,0.0,0.0,95,0.00,,,0.01,,2013-01-21 07:23:00,
2013-01-21 02:33:00,30.0,29.0,30.05,North,0,0.0,0.0,95,0.00,,,0.01,,2013-01-21 07:33:00,
2013-01-21 02:42:00,30.0,29.0,30.05,North,0,0.0,0.0,95,0.00,,,0.01,,2013-01-21 07:42:00,
2013-01-21 02:52:00,30.0,29.0,30.05,North,0,0.0,0.0,95,0.00,,,0.01,,2013-01-21 07:52:00,
2013-01-21 03:03:00,29.0,28.0,30.05,North,0,0.0,0.0,95,0.00,,,0.01,,2013-01-21 08:03:00,
2013-01-21 03:14:00,29.0,28.0,30.05,North,0,0.0,0.0,95,0.00,,,0.01,,2013-01-21 08:14:00,
2013-01-21 03:23:00,29.0,28.0,30.05,North,0,0.0,0.0,95,0.00,,,0.01,,2013-01-21 08:23:00,
2013-01-21 03:33:00,29.0,28.0,30.05,North,0,0.0,0.0,95,0.00,,,0.01,,2013-01-21 08:33:00,
2013-01-21 03:42:00,29.0,28.0,30.05,North,0,0.0,0.0,95,0.00,,,0.01,,2013-01-21 08:42:00,
2013-01-21 03:53:00,29.0,28.0,30.05,North,0,0.0,0.0,95,0.00,,,0.01,,2013-01-21 08:53:00,
2013-01-21 04:03:00,28.0,27.0,30.05,North,0,0.0,0.0,96,0.00,,,0.01,,2013-01-21 09:03:00,
2013-01-21 04:23:00,28.0,27.0,30.05,North,0,0.0,0.0,95,0.00,,,0.01,,2013-01-21 09:23:00,
2013-01-21 04:33:00,28.0,27.0,30.04,North,0,0.0,0.0,96,0.00,,,0.01,,2013-01-21 09:33:00,
2013-01-21 04:42:00,28.0,27.0,30.04,North,0,0.0,0.0,96,0.00,,,0.01,,2013-01-21 09:42:00,
2013-01-21 04:53:00,28.0,27.0,30.04,North,0,0.0,0.0,96,0.00,,,0.00,,2013-01-21 09:53:00,
2013-01-21 05:02:00,28.0,27.0,30.04,North,0,0.0,0.0,96,0.00,,,0.00,,2013-01-21 10:02:00,
2013-01-21 05:12:00,28.0,27.0,30.04,North,0,0.0,0.0,96,0.00,,,0.00,,2013-01-21 10:12:00,
2013-01-21 05:22:00,28.0,27.0,30.04,North,0,0.0,0.0,96,0.00,,,0.00,,2013-01-21 10:22:00,
2013-01-21 05:33:00,28.0,27.0,30.03,North,0,0.0,0.0,96,0.00,,,0.00,,2013-01-21 10:33:00,
2013-01-21 05:43:00,28.0,27.0,30.03,North,0,0.0,0.0,96,0.00,,,0.00,,2013-01-21 10:43:00,
2013-01-21 05:53:00,28.0,27.0,30.03,North,0,0.0,0.0,96,0.00,,,0.00,,2013-01-21 10:53:00,
2013-01-21 06:03:00,27.0,26.0,30.04,North,0,0.0,0.0,96,0.00,,,0.00,,2013-01-21 11:03:00,
2013-01-21 06:13:00,27.0,26.0,30.04,North,0,0.0,0.0,96,0.00,,,0.00,,2013-01-21 11:13:00,
2013-01-21 06:23:00,27.0,26.0,30.04,North,0,0.0,0.0,96,0.00,,,0.00,,2013-01-21 11:23:00,
2013-01-21 06:33:00,27.0,26.0,30.04,North,0,0.0,0.0,96,0.00,,,0.00,,2013-01-21 11:33:00,
2013-01-21 06:53:00,27.0,26.0,30.04,North,0,0.0,0.0,96,0.00,,,0.00,,2013-01-21 11:53:00,
2013-01-21 07:03:00,27.0,26.0,30.03,North,0,0.0,0.0,96,0.00,,,0.00,,2013-01-21 12:03:00,
2013-01-21 07:12:00,27.0,26.0,30.03,North,0,0.0,0.0,96,0.00,,,0.00,,2013-01-21 12:12:00,
2013-01-21 07:22:00,27.0,26.0,30.04,North,0,0.0,0.0,95,0.00,,,0.00,,2013-01-21 12:22:00,
2013-01-21 07:33:00,26.0,25.0,30.04,North,0,0.0,0.0,95,0.00,,,0.00,,2013-01-21 12:33:00,
2013-01-21 07:42:00,26.0,25.0,30.04,North,0,0.0,0.0,95,0.00,,,0.00,,2013-01-21 12:42:00,
2013-01-21 07:52:00,26.0,25.0,30.04,North,0,0.0,0.0,96,0.00,,,0.00,,2013-01-21 12:52:00,
2013-01-21 08:03:00,26.0,25.0,30.04,North,0,0.0,0.0,95,0.00,,,0.00,,2013-01-21 13:03:00,
2013-01-21 08:13:00,26.0,25.0,30.04,North,0,0.0,0.0,95,0.00,,,0.00,,2013-01-21 13:13:00,
2013-01-21 08:23:00,26.0,25.0,30.05,North,0,0.0,0.0,96,0.00,,,0.00,,2013-01-21 13:23:00,
2013-01-21 08:33:00,26.0,25.0,30.05,North,0,0.0,0.0,96,0.00,,,0.00,,2013-01-21 13:33:00,
2013-01-21 08:43:00,26.0,25.0,30.05,North,0,0.0,0.0,96,0.00,,,0.00,,2013-01-21 13:43:00,
2013-01-21 08:53:00,28.0,27.0,30.04,North,0,0.0,0.0,97,0.00,,,0.00,,2013-01-21 13:53:00,
2013-01-21 09:04:00,29.0,28.0,30.04,North,0,0.0,0.0,97,0.00,,,0.00,,2013-01-21 14:04:00,
2013-01-21 09:13:00,29.0,28.0,30.04,North,0,0.0,0.0,97,0.00,,,0.00,,2013-01-21 14:13:00,
2013-01-21 09:23:00,30.0,29.0,30.04,North,0,0.0,0.0,97,0.00,,,0.00,,2013-01-21 14:23:00,
2013-01-21 09:32:00,35.0,34.0,30.04,North,0,0.0,0.0,98,0.00,,,0.00,,2013-01-21 14:32:00,
2013-01-21 09:43:00,35.0,34.0,30.04,North,0,0.0,0.0,98,0.00,,,0.00,,2013-01-21 14:43:00,
2013-01-21 09:53:00,37.0,36.0,30.04,North,0,0.0,0.0,97,0.00,,,0.00,,2013-01-21 14:53:00,
2013-01-21 10:03:00,40.0,38.0,30.03,North,0,0.0,0.0,91,0.00,,,0.00,,2013-01-21 15:03:00,
2013-01-21 10:13:00,40.0,38.0,30.03,North,0,0.0,0.0,91,0.00,,,0.00,,2013-01-21 15:13:00,
2013-01-21 10:23:00,42.0,38.0,30.04,North,0,0.0,0.0,86,0.00,,,0.00,,2013-01-21 15:23:00,
2013-01-21 10:33:00,45.0,37.0,30.03,North,0,0.0,4.0,73,0.00,,,0.00,,2013-01-21 15:33:00,
2013-01-21 10:43:00,45.0,37.0,30.03,North,0,0.0,4.0,73,0.00,,,0.00,,2013-01-21 15:43:00,
2013-01-21 10:53:00,45.0,37.0,30.03,North,0,0.0,4.0,73,0.00,,,0.00,,2013-01-21 15:53:00,
2013-01-21 11:04:00,45.0,37.0,30.03,North,0,0.0,4.0,73,0.00,,,0.00,,2013-01-21 16:04:00,
2013-01-21 11:23:00,50.0,29.0,30.02,North,0,0.0,5.0,45,0.00,,,0.00,,2013-01-21 16:23:00,
2013-01-21 11:33:00,51.0,30.0,30.02,SSE,160,4.0,7.0,45,0.00,,,0.00,,2013-01-21 16:33:00,
2013-01-21 11:43:00,51.0,30.0,30.02,SSE,160,4.0,7.0,45,0.00,,,0.00,,2013-01-21 16:43:00,
2013-01-21 11:53:00,51.0,30.0,30.02,SSE,160,4.0,7.0,45,0.00,,,0.00,,2013-01-21 16:53:00,
2013-01-21 12:03:00,52.0,29.0,29.99,SSE,153,3.0,7.0,41,0.00,,,0.00,,2013-01-21 17:03:00,
2013-01-21 12:13:00,52.0,29.0,29.99,SSE,153,3.0,7.0,41,0.00,,,0.00,,2013-01-21 17:13:00,
2013-01-21 12:23:00,52.0,29.0,29.97,SSE,158,1.0,7.0,41,0.00,,,0.00,,2013-01-21 17:23:00,
2013-01-21 12:33:00,54.0,31.0,29.96,SE,139,1.0,7.0,41,0.00,,,0.00,,2013-01-21 17:33:00,
2013-01-21 12:43:00,54.0,31.0,29.96,SE,139,1.0,7.0,41,0.00,,,0.00,,2013-01-21 17:43:00,
2013-01-21 12:53:00,54.0,29.0,29.95,North,0,0.0,9.0,38,0.00,,,0.00,,2013-01-21 17:53:00,
2013-01-21 13:03:00,54.0,29.0,29.95,North,0,0.0,9.0,38,0.00,,,0.00,,2013-01-21 18:03:00,
2013-01-21 13:12:00,54.0,29.0,29.95,North,0,0.0,9.0,38,0.00,,,0.00,,2013-01-21 18:12:00,
2013-01-21 13:23:00,56.0,31.0,29.94,North,0,0.0,8.0,38,0.00,,,0.00,,2013-01-21 18:23:00,
2013-01-21 13:33:00,56.0,27.0,29.92,SE,146,1.0,10.0,33,0.00,,,0.00,,2013-01-21 18:33:00,
2013-01-21 13:43:00,56.0,27.0,29.92,SE,146,1.0,10.0,33,0.00,,,0.00,,2013-01-21 18:43:00,
2013-01-21 13:52:00,57.0,28.0,29.91,South,186,3.0,7.0,33,0.00,,,0.00,,2013-01-21 18:52:00,
2013-01-21 14:03:00,57.0,28.0,29.91,North,0,0.0,7.0,33,0.00,,,0.00,,2013-01-21 19:03:00,
2013-01-21 14:12:00,58.0,28.0,29.89,SE,125,2.0,8.0,32,0.00,,,0.00,,2013-01-21 19:12:00,
2013-01-21 14:22:00,58.0,28.0,29.89,SE,125,2.0,8.0,32,0.00,,,0.00,,2013-01-21 19:22:00,
2013-01-21 14:33:00,58.0,28.0,29.89,SE,125,2.0,8.0,32,0.00,,,0.00,,2013-01-21 19:33:00,
2013-01-21 14:43:00,58.0,28.0,29.89,SE,125,2.0,8.0,32,0.00,,,0.00,,2013-01-21 19:43:00,
2013-01-21 14:53:00,58.0,27.0,29.87,North,0,0.0,8.0,30,0.00,,,0.00,,2013-01-21 19:53:00,
2013-01-21 15:03:00,59.0,29.0,29.86,SSW,202,4.0,9.0,32,0.00,,,0.00,,2013-01-21 20:03:00,
2013-01-21 15:12:00,59.0,29.0,29.86,SSW,202,4.0,9.0,32,0.00,,,0.00,,2013-01-21 20:12:00,
2013-01-21 15:23:00,59.0,29.0,29.86,SSW,202,4.0,9.0,32,0.00,,,0.00,,2013-01-21 20:23:00,
2013-01-21 15:33:00,59.0,29.0,29.86,SSW,202,4.0,9.0,32,0.00,,,0.00,,2013-01-21 20:33:00,
2013-01-21 15:53:00,58.0,31.0,29.85,SSW,197,2.0,6.0,35,0.00,,,0.00,,2013-01-21 20:53:00,
2013-01-21 16:04:00,58.0,32.0,29.85,SE,144,2.0,10.0,37,0.00,,,0.00,,2013-01-21 21:04:00,
2013-01-21 16:12:00,58.0,32.0,29.85,SE,144,2.0,10.0,37,0.00,,,0.00,,2013-01-21 21:12:00,
2013-01-21 16:23:00,58.0,32.0,29.85,SE,144,2.0,10.0,37,0.00,,,0.00,,2013-01-21 21:23:00,
2013-01-21 16:33:00,58.0,31.0,29.84,North,355,3.0,7.0,36,0.00,,,0.00,,2013-01-21 21:33:00,
2013-01-21 16:43:00,58.0,31.0,29.84,North,355,3.0,7.0,36,0.00,,,0.00,,2013-01-21 21:43:00,
2013-01-21 16:54:00,57.0,32.0,29.83,North,0,0.0,9.0,38,0.00,,,0.00,,2013-01-21 21:54:00,
2013-01-21 17:03:00,56.0,32.0,29.83,North,0,0.0,5.0,40,0.00,,,0.00,,2013-01-21 22:03:00,
2013-01-21 17:13:00,56.0,32.0,29.83,North,0,0.0,5.0,40,0.00,,,0.00,,2013-01-21 22:13:00,
2013-01-21 17:23:00,56.0,32.0,29.83,North,0,0.0,4.0,40,0.00,,,0.00,,2013-01-21 22:23:00,
2013-01-21 17:33:00,56.0,33.0,29.82,North,0,0.0,6.0,42,0.00,,,0.00,,2013-01-21 22:33:00,
2013-01-21 17:43:00,56.0,33.0,29.82,North,0,0.0,6.0,42,0.00,,,0.00,,2013-01-21 22:43:00,
2013-01-21 17:52:00,53.0,34.0,29.82,North,0,0.0,0.0,48,0.00,,,0.00,,2013-01-21 22:52:00,
2013-01-21 18:03:00,53.0,34.0,29.82,North,0,0.0,0.0,48,0.00,,,0.00,,2013-01-21 23:03:00,
2013-01-21 18:13:00,53.0,34.0,29.82,North,0,0.0,0.0,48,0.00,,,0.00,,2013-01-21 23:13:00,
2013-01-21 18:23:00,49.0,34.0,29.83,North,0,0.0,0.0,57,0.00,,,0.00,,2013-01-21 23:23:00,
2013-01-21 18:33:00,49.0,34.0,29.83,North,0,0.0,0.0,57,0.00,,,0.00,,2013-01-21 23:33:00,
2013-01-21 18:43:00,49.0,34.0,29.83,North,0,0.0,0.0,57,0.00,,,0.00,,2013-01-21 23:43:00,
2013-01-21 18:53:00,47.0,35.0,29.83,North,0,0.0,0.0,63,0.00,,,0.00,,2013-01-21 23:53:00,
2013-01-21 19:03:00,46.0,35.0,29.83,North,0,0.0,0.0,65,0.00,,,0.00,,2013-01-22 00:03:00,
2013-01-21 19:12:00,46.0,35.0,29.83,North,0,0.0,0.0,65,0.00,,,0.00,,2013-01-22 00:12:00,
2013-01-21 19:22:00,45.0,35.0,29.84,North,0,0.0,0.0,68,0.00,,,0.00,,2013-01-22 00:22:00,
2013-01-21 19:33:00,43.0,35.0,29.84,North,0,0.0,0.0,72,0.00,,,0.00,,2013-01-22 00:33:00,
2013-01-21 19:43:00,43.0,35.0,29.84,North,0,0.0,0.0,72,0.00,,,0.00,,2013-01-22 00:43:00,
2013-01-21 19:53:00,42.0,34.0,29.85,North,0,0.0,0.0,73,0.00,,,0.00,,2013-01-22 00:53:00,
2013-01-21 20:02:00,42.0,34.0,29.85,North,0,0.0,0.0,73,0.00,,,0.00,,2013-01-22 01:02:00,
2013-01-21 20:12:00,42.0,34.0,29.85,North,0,0.0,0.0,73,0.00,,,0.00,,2013-01-22 01:12:00,
2013-01-21 20:23:00,42.0,34.0,29.85,North,0,0.0,0.0,73,0.00,,,0.00,,2013-01-22 01:23:00,
2013-01-21 21:33:00,48.0,24.0,29.89,North,0,0.0,7.0,39,0.00,,,0.00,,2013-01-22 02:33:00,
2013-01-21 21:43:00,48.0,24.0,29.89,North,0,0.0,7.0,39,0.00,,,0.00,,2013-01-22 02:43:00,
2013-01-21 21:53:00,48.0,24.0,29.89,North,0,0.0,7.0,39,0.00,,,0.00,,2013-01-22 02:53:00,
2013-01-21 22:03:00,47.0,22.0,29.90,WNW,295,1.0,5.0,37,0.00,,,0.00,,2013-01-22 03:03:00,
2013-01-21 22:12:00,47.0,22.0,29.90,WNW,295,1.0,5.0,37,0.00,,,0.00,,2013-01-22 03:12:00,
2013-01-21 22:22:00,46.0,22.0,29.91,North,0,0.0,6.0,39,0.00,,,0.00,,2013-01-22 03:22:00,
2013-01-21 22:33:00,45.0,22.0,29.91,North,0,0.0,2.0,40,0.00,,,0.00,,2013-01-22 03:33:00,
2013-01-21 22:42:00,45.0,22.0,29.91,North,0,0.0,2.0,40,0.00,,,0.00,,2013-01-22 03:42:00,
2013-01-21 22:53:00,44.0,23.0,29.91,North,0,0.0,3.0,44,0.00,,,0.00,,2013-01-22 03:53:00,
2013-01-21 23:03:00,42.0,23.0,29.92,North,0,0.0,0.0,47,0.00,,,0.00,,2013-01-22 04:03:00,
2013-01-21 23:12:00,42.0,23.0,29.92,North,0,0.0,0.0,47,0.00,,,0.00,,2013-01-22 04:12:00,
2013-01-21 23:22:00,42.0,23.0,29.92,North,0,0.0,0.0,47,0.00,,,0.00,,2013-01-22 04:22:00,
2013-01-21 23:33:00,39.0,24.0,29.92,North,0,0.0,0.0,55,0.00,,,0.00,,2013-01-22 04:33:00,
2013-01-21 23:42:00,39.0,24.0,29.92,North,0,0.0,0.0,55,0.00,,,0.00,,2013-01-22 04:42:00,
2013-01-21 23:53:00,38.0,25.0,29.92,North,0,0.0,0.0,59,0.00,,,0.00,,2013-01-22 04:53:00,